Regional Weather Roundup
Issued by NWS Kansas City/Pleasant Hill, MO

Home | Current Version | Previous Version | Text Only | Print | Product List | Glossary On
Versions: 1 2 3 4 5 6 7 8 9 10 11 12 13 14 15 16 17 18 19 20 21 22 23 24 25 26 27 28 29 30 31 32 33 34 35 36 37 38 39 40 41 42 43 44 45 46 47 48 49 50
279
ASUS43 KEAX 041310
RWREAX

WEATHER ROUNDUP FOR EASTERN KANSAS AND NORTHWEST MISSOURI
NATIONAL WEATHER SERVICE KANSAS CITY/PLEASANT HILL MO
700 AM CST SUN DEC 04 2016

KSZ040-057-103>105-MOZ028-029-037-043-041400-
...KANSAS CITY METROPOLITAN AREA...

CITY           SKY/WX    TMP DP  RH WIND       PRES   REMARKS
K.C. INTL      MIX PCPN  37  34  89 S7        30.00F WCI  32
K.C. DOWNTOWN  LGT RAIN  39  36  89 SW7       30.01F WCI  34
LEES SUMMIT    LGT RAIN  38  36  92 S6        30.00F WCI  33
OLATHE - IXD   LGT RAIN  38  36  92 SW8       30.01F WCI  32
OLATHE - OJC   LGT RAIN  37  36  96 W3        30.00F
LAWRENCE       LGT RAIN  37  37 100 SW3       30.02S FOG

$$

MOZ001>008-011>017-020>025-030>033-038>040-044>046-053-054-041400-
...NORTHERN AND CENTRAL MISSOURI...

CITY           SKY/WX    TMP DP  RH WIND       PRES   REMARKS
ST. JOSEPH     RAIN      37  35  92 W3        30.01F
MOSBY          LGT RAIN  37  36  93 S6        30.02F WCI  33
WARRENSBURG    LGT RAIN  36  36 100 S8        30.02R WCI  29
WHITEMAN AFB   LGT RAIN  37  37 100 S6        30.01R WCI  32
CLINTON        LGT RAIN  37  37 100 CALM      30.02S
SEDALIA        LGT RAIN  38  36  92 SE6       30.02F WCI  33
WARSAW         NOT AVBL
CHILLICOTHE      N/A     35  34  96 SE3       30.04F
KIRKSVILLE     LGT SNOW  33  33 100 SE6       30.04S VSB 3/4 WCI  28

$$

MOZ041-047>049-056>058-063>065-088>090-097-041400-
...EASTERN AND SOUTHERN MISSOURI...

CITY           SKY/WX    TMP DP  RH WIND       PRES   REMARKS
ST. LOUIS INTL LGT RAIN  38  33  82 E9        30.04F WCI  31
SPIRIT OF STL  LGT RAIN  37  36  96 E7        30.03F WCI  32
COLUMBIA       LGT RAIN  37  36  96 SE6       30.01F FOG     WCI  32
JEFFERSON CITY MIX PCPN  37  36  96 E5        30.02F FOG     WCI  33
ROLLA          LGT RAIN  35  35 100 E6        29.98F FOG     WCI  30
OSAGE BEACH    LGT RAIN  37  36  93 CALM      30.02S FOG
SPRINGFIELD    LGT RAIN  38  37  97 S6        29.98F FOG     WCI  33
BRANSON        FOG       37  37 100 CALM      30.01R VSB 1
JOPLIN         LGT RAIN  40  40 100 CALM      30.02R
WEST PLAINS    CLOUDY    37  36  96 E6        29.99S FOG     WCI  32

$$

IAZ060-094-KSZ022-034>040-054-083-096-NEZ052-066-093-041400-
...KANSAS...SOUTHEAST NEBRASKA AND IOWA...

CITY           SKY/WX    TMP DP  RH WIND       PRES   REMARKS
TOPEKA         LGT RAIN  38  35  89 W7        30.02S WCI  33
MANHATTAN      CLOUDY    39  37  92 CALM      30.01S
EMPORIA        LGT RAIN  37  36  96 W5        30.01F WCI  33
CHANUTE        CLOUDY    41  40  96 CALM      30.02S
WICHITA        MOCLDY    40  38  93 NW3       30.02S
OMAHA          CLOUDY    34  30  85 SW5       29.99R WCI  30
LINCOLN        CLOUDY    33  31  92 W8        29.99F WCI  26
FALLS CITY     CLOUDY    36  32  85 SW3       29.99S
LAMONI         LGT SNOW  33  32  96 S7        29.99F FOG     WCI  27
DES MOINES     LGT SNOW  34  33  96 S8        30.00S VSB 3/4 WCI  27

$$





USA.gov is the U.S. government's official web portal to all federal, state and local government web resources and services.